Weather History for Catania, Italy

Change the Weather History Date:

Tuesday, December 4, 2012

  Actual Average Record
Temperature  
Mean Temperature 48 °F -  
Max Temperature 60 °F 62 °F 69 °F (2006)
Min Temperature 37 °F 44 °F 35 °F (1996)
Degree Days  
Heating Degree Days 16    
Moisture  
Dew Point 39 °F    
Average Humidity 66    
Maximum Humidity 88    
Minimum Humidity 39    
Precipitation  
Precipitation 0.00 in 0.11 in - ()
Sea Level Pressure  
Sea Level Pressure 29.94 in    
Wind  
Wind Speed 7 mph ()    
Max Wind Speed 15 mph    
Max Gust Speed -    
Visibility 6.2 miles    
Events      
Averages and records for this station are not official NWS values.
T = Trace of Precipitation, MM = Missing Value Source: Averaged Metar Reports

Daily Weather History Graph

Daily Weather History Graph

Search for Another Location

Airport:

Trip Planner

Search our weather history database for the weather conditions in past years. The results will help you decide how hot, cold, wet, or windy it might be!

Date:

Astronomy

Dec. 04, 2012 Rise Set
Actual Time 6:58 AM CET 4:41 PM CET
Civil Twilight 6:29 AM CET 5:10 PM CET
Nautical Twilight 5:57 AM CET 5:42 PM CET
Astronomical Twilight 5:25 AM CET 6:14 PM CET
Moon 10:06 PM CET (12/4) 10:47 AM CET (12/4)
Length of Visible Light 10h 40m
Length of Day
9h 43m
Waning Gibbous, 72% of the Moon is Illuminated
Dec 4
Waning Gibbous
Dec 6
Last Quarter
Dec 13
New
Dec 20
First Quarter
Dec 28
Full

Hourly Weather History & Observations

Time (CET) Temp. Windchill Dew Point Humidity Pressure Visibility Wind Dir Wind Speed Gust Speed Precip Events Conditions
12:20 AM 46.4 °F 42.4 °F 30.2 °F 53% 30.06 in - West 8.1 mph - N/A   Clear
1:20 AM 46.4 °F 42.4 °F 32.0 °F 57% 30.06 in - WSW 8.1 mph - N/A   Clear
1:50 AM 48.2 °F - 32.0 °F 54% 30.06 in - SSW 6.9 mph - N/A   Clear
2:20 AM 46.4 °F 41.9 °F 33.8 °F 62% 30.06 in - SSW 9.2 mph - N/A   Clear
2:50 AM 42.8 °F 40.1 °F 33.8 °F 70% 30.06 in - WNW 4.6 mph - N/A   Clear
3:20 AM 42.8 °F - 33.8 °F 70% 30.06 in - Variable 2.3 mph - N/A   Clear
3:50 AM 42.8 °F 38.0 °F 33.8 °F 70% 30.04 in - WSW 8.1 mph - N/A   Clear
4:20 AM 41.0 °F 35.8 °F 33.8 °F 76% 30.04 in - West 8.1 mph - N/A   Clear
4:50 AM 41.0 °F 36.4 °F 33.8 °F 76% 30.04 in - West 6.9 mph - N/A   Clear
5:20 AM 39.2 °F 33.6 °F 33.8 °F 81% 30.04 in - West 8.1 mph - N/A   Clear
5:50 AM 39.2 °F 33.6 °F 32.0 °F 75% 30.04 in - West 8.1 mph - N/A   Clear
6:20 AM 37.4 °F 32.1 °F 32.0 °F 81% 30.04 in - WSW 6.9 mph - N/A   Clear
6:50 AM 37.4 °F 31.4 °F 32.0 °F 81% 30.04 in - WSW 8.1 mph - N/A   Clear
7:20 AM 37.4 °F 32.1 °F 32.0 °F 81% 30.04 in - SW 6.9 mph - N/A   Clear
7:50 AM 39.2 °F 33.6 °F 33.8 °F 81% 30.04 in - WSW 8.1 mph - N/A   Clear
8:20 AM 44.6 °F 40.2 °F 33.8 °F 66% 30.04 in - WSW 8.1 mph - N/A   Clear
8:50 AM 48.2 °F - 35.6 °F 62% 30.04 in - WSW 6.9 mph - N/A   Clear
9:20 AM 50.0 °F - 35.6 °F 58% 30.04 in - WSW 8.1 mph - N/A   Clear
9:50 AM 51.8 °F - 35.6 °F 54% 30.04 in - SW 6.9 mph - N/A   Clear
10:20 AM 53.6 °F - 37.4 °F 54% 30.01 in - SW 5.8 mph - N/A   Clear
10:50 AM 55.4 °F - 37.4 °F 51% 30.01 in - SW 5.8 mph - N/A   Clear
11:20 AM 57.2 °F - 37.4 °F 48% 30.01 in - SW 5.8 mph - N/A   Clear
11:50 AM 57.2 °F - 33.8 °F 41% 29.98 in 6.2 mi SW 4.6 mph - N/A   Partly Cloudy
12:20 PM 59.0 °F - 33.8 °F 39% 29.95 in 6.2 mi WSW 4.6 mph - N/A   Scattered Clouds
12:50 PM 59.0 °F - 33.8 °F 39% 29.95 in 6.2 mi Variable 3.5 mph - N/A   Scattered Clouds
1:20 PM 59.0 °F - 37.4 °F 45% 29.92 in 6.2 mi WSW 5.8 mph - N/A   Scattered Clouds
1:50 PM 59.0 °F - 39.2 °F 48% 29.92 in 6.2 mi SW 8.1 mph - N/A   Mostly Cloudy
2:20 PM 60.8 °F - 41.0 °F 48% 29.89 in 6.2 mi SW 8.1 mph - N/A   Mostly Cloudy
2:50 PM 60.8 °F - 42.8 °F 52% 29.89 in 6.2 mi West 10.4 mph - N/A   Scattered Clouds
3:20 PM 60.8 °F - 41.0 °F 48% 29.89 in 6.2 mi West 8.1 mph - N/A   Scattered Clouds
3:50 PM 59.0 °F - 42.8 °F 55% 29.89 in 6.2 mi West 6.9 mph - N/A   Mostly Cloudy
4:20 PM 59.0 °F - 42.8 °F 55% 29.86 in 6.2 mi WSW 9.2 mph - N/A   Mostly Cloudy
4:50 PM 57.2 °F - 44.6 °F 63% 29.86 in 6.2 mi WSW 9.2 mph - N/A   Mostly Cloudy
5:20 PM 57.2 °F - 46.4 °F 67% 29.86 in 6.2 mi West 8.1 mph - N/A   Mostly Cloudy
5:50 PM 55.4 °F - 46.4 °F 72% 29.86 in 6.2 mi WSW 10.4 mph - N/A   Mostly Cloudy
6:20 PM 53.6 °F - 46.4 °F 77% 29.86 in 6.2 mi WSW 9.2 mph - N/A   Mostly Cloudy
6:50 PM 53.6 °F - 46.4 °F 77% 29.86 in 6.2 mi West 8.1 mph - N/A   Partly Cloudy
7:20 PM 51.8 °F - 46.4 °F 82% 29.83 in 6.2 mi WSW 8.1 mph - N/A   Partly Cloudy
7:50 PM 51.8 °F - 46.4 °F 82% 29.83 in 6.2 mi West 8.1 mph - N/A   Partly Cloudy
8:20 PM 50.0 °F - 44.6 °F 82% 29.83 in 6.2 mi West 4.6 mph - N/A   Partly Cloudy
8:50 PM 51.8 °F - 44.6 °F 76% 29.80 in 6.2 mi WSW 10.4 mph - N/A   Partly Cloudy
9:20 PM 51.8 °F - 44.6 °F 76% 29.80 in 6.2 mi WSW 10.4 mph - N/A   Partly Cloudy
9:50 PM 50.0 °F - 44.6 °F 82% 29.80 in - WSW 5.8 mph - N/A   Clear
10:20 PM 50.0 °F - 44.6 °F 82% 29.77 in - SW 8.1 mph - N/A   Clear
10:50 PM 51.8 °F - 46.4 °F 82% 29.77 in - WSW 11.5 mph - N/A   Clear
11:20 PM 51.8 °F - 48.2 °F 88% 29.77 in - WSW 12.7 mph - N/A   Clear
11:50 PM 51.8 °F - 46.4 °F 82% 29.77 in - WSW 15.0 mph - N/A   Clear